Weather History for CYVR - January, 2013

Change the Weather History Date:

Friday, January 25, 2013

  Actual Average Record
Temperature  
Mean Temperature 43 °F -  
Max Temperature 49 °F 43 °F 57 °F (2015)
Min Temperature 37 °F 34 °F 23 °F (1997)
Degree Days  
Heating Degree Days 22    
Moisture  
Dew Point 39 °F    
Average Humidity 86    
Maximum Humidity 93    
Minimum Humidity 65    
Precipitation  
Precipitation 0.08 in - - ()
Sea Level Pressure  
Sea Level Pressure 30.00 in    
Wind  
Wind Speed 9 mph ()    
Max Wind Speed 14 mph    
Max Gust Speed -    
Visibility 12.0 miles    
Events Rain    
Averages and records for this station are not official NWS values.
T = Trace of Precipitation, MM = Missing Value Source: Averaged Metar Reports

Daily Weather History Graph

Daily Weather History Graph

Search for Another Location

Airport or City:

Trip Planner

Search our weather history database for the weather conditions in past years. The results will help you decide how hot, cold, wet, or windy it might be!

Date:

Astronomy

Jan. 25, 2013 Rise Set
Actual Time 7:52 AM PST 4:58 PM PST
Civil Twilight 7:17 AM PST 5:33 PM PST
Nautical Twilight 6:38 AM PST 6:12 PM PST
Astronomical Twilight 6:01 AM PST 6:49 PM PST
Moon 4:01 PM PST (1/25) 6:36 AM PST (1/25)
Length of Visible Light 10h 16m
Length of Day
9h 06m
Waxing Gibbous, 98% of the Moon is Illuminated
Jan 25
Waxing Gibbous
Jan 26
Full
Feb 3
Last Quarter
Feb 9
New
Feb 17
First Quarter

Hourly Weather History & Observations

Time (PST) Temp. Windchill Dew Point Humidity Pressure Visibility Wind Dir Wind Speed Gust Speed Precip Events Conditions
12:00 AM 41.0 °F 33.5 °F 39.2 °F 93% 30.02 in 6.0 mi East 13.8 mph - N/A Rain Light Rain
1:00 AM 41.0 °F 34.7 °F 39.2 °F 93% 30.02 in 6.0 mi East 10.4 mph - N/A Rain Light Rain
2:00 AM 41.0 °F 34.7 °F 39.2 °F 93% 30.01 in 6.0 mi East 10.4 mph - N/A Rain Light Rain
3:00 AM 41.0 °F 35.8 °F 39.2 °F 93% 30.02 in 6.0 mi East 8.1 mph - N/A Rain Light Rain
3:41 AM 41.0 °F 34.3 °F - N/A% - 8.0 mi East 11.5 mph - N/A   Overcast
4:00 AM 41 °F - 40 °F 92% 30.02 in 7 mi East 11.5 mph - - Rain Light Rain
4:00 AM 41.0 °F 34.3 °F 39.2 °F 93% 30.02 in 8.0 mi East 11.5 mph - N/A   Overcast
5:00 AM 41.0 °F 33.9 °F 39.2 °F 93% 30.03 in 8.0 mi East 12.7 mph - N/A   Mostly Cloudy
5:10 AM 41.0 °F 34.3 °F - N/A% - 8.0 mi ESE 11.5 mph - N/A   Mostly Cloudy
5:16 AM 41.0 °F 34.3 °F - N/A% - 8.0 mi ESE 11.5 mph - N/A   Scattered Clouds
6:00 AM 39.2 °F 32.5 °F 37.4 °F 93% 30.03 in 8.0 mi East 10.4 mph - N/A   Scattered Clouds
6:39 AM 39.2 °F 32.5 °F - N/A% - 8.0 mi East 10.4 mph - N/A   Scattered Clouds
7:00 AM 39.2 °F 33.0 °F 37.4 °F 93% 30.03 in 8.0 mi East 9.2 mph - N/A   Scattered Clouds
7:46 AM 39.2 °F 34.2 °F - N/A% - 8.0 mi East 6.9 mph - N/A   Mostly Cloudy
8:00 AM 39.2 °F 35.0 °F 37.4 °F 93% 30.05 in 8.0 mi East 5.8 mph - N/A   Mostly Cloudy
9:00 AM 42.8 °F 37.0 °F 41.0 °F 93% 30.05 in 15.0 mi East 10.4 mph - N/A   Overcast
10:00 AM 44 °F - 41 °F 84% 30.06 in 15 mi East 10.4 mph - -   Overcast
10:00 AM 44.6 °F 39.2 °F 41.0 °F 87% 30.06 in 15.0 mi East 10.4 mph - N/A   Overcast
11:00 AM 44.6 °F 40.7 °F 41.0 °F 87% 30.06 in 15.0 mi ESE 6.9 mph - N/A   Overcast
12:00 PM 46.4 °F 40.7 °F 42.8 °F 87% 30.03 in 15.0 mi East 12.7 mph - N/A   Mostly Cloudy
1:00 PM 48.2 °F - 42.8 °F 82% 30.01 in 15.0 mi East 8.1 mph - N/A   Scattered Clouds
2:00 PM 50.0 °F - 41.0 °F 71% 29.99 in 20.0 mi East 8.1 mph - N/A   Partly Cloudy
3:00 PM 50.0 °F - 41.0 °F 71% 29.98 in 20.0 mi SE 6.9 mph - N/A   Partly Cloudy
4:00 PM 48 °F - 40 °F 65% 29.97 in 19 mi ESE 5.8 mph - -   Scattered Clouds
4:00 PM 48.2 °F - 39.2 °F 71% 29.97 in 20.0 mi East 5.8 mph - N/A   Partly Cloudy
5:00 PM 42.8 °F 38.0 °F 37.4 °F 81% 29.96 in 15.0 mi East 8.1 mph - N/A   Partly Cloudy
6:00 PM 41.0 °F 37.1 °F 35.6 °F 81% 29.95 in 15.0 mi East 5.8 mph - N/A   Partly Cloudy
7:00 PM 41.0 °F 38.0 °F 37.4 °F 87% 29.94 in 15.0 mi East 4.6 mph - N/A   Mostly Cloudy
8:00 PM 42.8 °F 39.3 °F 37.4 °F 81% 29.94 in 15.0 mi East 5.8 mph - N/A   Overcast
9:00 PM 42.8 °F 38.6 °F 39.2 °F 87% 29.93 in 15.0 mi East 6.9 mph - N/A   Overcast
10:00 PM 41 °F - 37 °F 82% 29.92 in 15 mi East 6.9 mph - -   Overcast
10:00 PM 41.0 °F 36.4 °F 37.4 °F 87% 29.92 in 15.0 mi East 6.9 mph - N/A   Overcast
11:00 PM 42.8 °F 38.0 °F 37.4 °F 81% 29.91 in 12.0 mi East 8.1 mph - N/A   Mostly Cloudy